Time,TemperatureF,DewpointF,PressureIn,WindDirection,WindDirectionDegrees,WindSpeedMPH,WindSpeedGustMPH,Humidity,HourlyPrecipIn,Conditions,Clouds,dailyrainin,SolarRadiationWatts/m^2,SoftwareType,DateUTC
2013-02-25 02:00:00,29.0,17.0,29.96,SW,228,9.0,-999.0,62,-99.99,,,-99.99,0.020000,,2013-02-25 09:00:00,
2013-02-25 02:52:00,29.0,17.0,29.96,SW,228,9.0,-999.0,62,-99.99,,,-99.99,0.020000,,2013-02-25 09:52:00,
2013-02-25 03:00:00,27.0,17.0,29.95,SW,236,10.0,-999.0,65,-99.99,,,-99.99,0.020000,,2013-02-25 10:00:00,
2013-02-25 03:52:00,27.0,17.0,29.95,SW,236,10.0,-999.0,65,-99.99,,,-99.99,0.020000,,2013-02-25 10:52:00,
2013-02-25 05:00:00,27.0,16.0,29.92,SW,223,9.0,-999.0,63,-99.99,,,-99.99,0.010000,,2013-02-25 12:00:00,
2013-02-25 05:55:00,27.0,16.0,29.92,SW,223,9.0,-999.0,63,-99.99,,,-99.99,0.010000,,2013-02-25 12:55:00,
2013-02-25 06:00:00,27.0,17.0,29.91,SW,230,9.0,-999.0,63,-99.99,,,-99.99,0.010000,,2013-02-25 13:00:00,
2013-02-25 06:52:00,27.0,17.0,29.91,SW,230,9.0,-999.0,63,-99.99,,,-99.99,0.010000,,2013-02-25 13:52:00,
2013-02-25 07:00:00,29.0,17.0,29.89,SW,225,9.0,-999.0,59,-99.99,,,-99.99,0.700000,,2013-02-25 14:00:00,
2013-02-25 07:52:00,29.0,17.0,29.89,SW,225,9.0,-999.0,59,-99.99,,,-99.99,0.700000,,2013-02-25 14:52:00,
2013-02-25 08:00:00,29.0,18.0,29.88,SW,230,11.0,-999.0,61,-99.99,,,-99.99,30.780001,,2013-02-25 15:00:00,
2013-02-25 08:52:00,29.0,18.0,29.88,SW,230,11.0,-999.0,61,-99.99,,,-99.99,30.780001,,2013-02-25 15:52:00,
2013-02-25 09:00:00,32.0,19.0,29.88,SSW,211,7.0,-999.0,59,-99.99,,,-99.99,161.500000,,2013-02-25 16:00:00,
2013-02-25 09:52:00,32.0,19.0,29.88,SSW,211,7.0,-999.0,59,-99.99,,,-99.99,161.500000,,2013-02-25 16:52:00,
2013-02-25 10:00:00,33.0,19.0,29.86,SSW,212,7.0,-999.0,56,-99.99,,,-99.99,212.399994,,2013-02-25 17:00:00,
2013-02-25 10:52:00,33.0,19.0,29.86,SSW,212,7.0,-999.0,56,-99.99,,,-99.99,212.399994,,2013-02-25 17:52:00,
2013-02-25 11:00:00,37.0,20.0,29.84,SSW,205,8.0,-999.0,49,-99.99,,,-99.99,246.399994,,2013-02-25 18:00:00,
2013-02-25 11:52:00,37.0,20.0,29.84,SSW,205,8.0,-999.0,49,-99.99,,,-99.99,246.399994,,2013-02-25 18:52:00,
2013-02-25 12:00:00,38.0,21.0,29.83,SW,222,9.0,-999.0,49,-99.99,,,-99.99,277.600006,,2013-02-25 19:00:00,
2013-02-25 12:52:00,38.0,21.0,29.83,SW,222,9.0,-999.0,49,-99.99,,,-99.99,277.600006,,2013-02-25 19:52:00,
2013-02-25 13:00:00,37.0,21.0,29.82,SW,234,12.0,-999.0,52,-99.99,,,-99.99,294.700012,,2013-02-25 20:00:00,
2013-02-25 13:52:00,37.0,21.0,29.82,SW,234,12.0,-999.0,52,-99.99,,,-99.99,294.700012,,2013-02-25 20:52:00,
2013-02-25 14:00:00,38.0,21.0,29.82,SW,229,10.0,-999.0,50,-99.99,,,-99.99,251.600006,,2013-02-25 21:00:00,
2013-02-25 14:52:00,38.0,21.0,29.82,SW,229,10.0,-999.0,50,-99.99,,,-99.99,251.600006,,2013-02-25 21:52:00,
2013-02-25 15:00:00,37.0,24.0,29.82,SW,230,8.0,-999.0,58,-99.99,,,-99.99,233.699997,,2013-02-25 22:00:00,
2013-02-25 15:52:00,37.0,24.0,29.82,SW,230,8.0,-999.0,58,-99.99,,,-99.99,233.699997,,2013-02-25 22:52:00,
2013-02-25 16:00:00,35.0,24.0,29.82,SW,233,9.0,-999.0,63,-99.99,,,-99.99,106.400002,,2013-02-25 23:00:00,
2013-02-25 16:52:00,35.0,24.0,29.82,SW,233,9.0,-999.0,63,-99.99,,,-99.99,106.400002,,2013-02-25 23:52:00,
2013-02-25 17:00:00,35.0,22.0,29.84,WSW,247,8.0,-999.0,58,-99.99,,,-99.99,39.599998,,2013-02-26 00:00:00,
2013-02-25 17:52:00,35.0,22.0,29.84,WSW,247,8.0,-999.0,58,-99.99,,,-99.99,39.599998,,2013-02-26 00:52:00,
2013-02-25 18:00:00,34.0,23.0,29.84,West,264,8.0,-999.0,65,-99.99,,,-99.99,10.110000,,2013-02-26 01:00:00,
2013-02-25 18:52:00,34.0,23.0,29.84,West,264,8.0,-999.0,65,-99.99,,,-99.99,10.110000,,2013-02-26 01:52:00,
2013-02-25 19:00:00,33.0,24.0,29.85,West,271,10.0,-999.0,68,-99.99,,,-99.99,0.280000,,2013-02-26 02:00:00,
2013-02-25 19:52:00,33.0,24.0,29.85,West,271,10.0,-999.0,68,-99.99,,,-99.99,0.280000,,2013-02-26 02:52:00,
2013-02-25 20:00:00,32.0,22.0,29.86,West,272,8.0,-999.0,64,-99.99,,,-99.99,0.120000,,2013-02-26 03:00:00,
2013-02-25 20:52:00,32.0,22.0,29.86,West,272,8.0,-999.0,64,-99.99,,,-99.99,0.120000,,2013-02-26 03:52:00,
2013-02-25 21:00:00,33.0,19.0,29.87,West,269,12.0,-999.0,57,-99.99,,,-99.99,0.130000,,2013-02-26 04:00:00,
2013-02-25 21:52:00,33.0,19.0,29.87,West,269,12.0,-999.0,57,-99.99,,,-99.99,0.130000,,2013-02-26 04:52:00,